DW1389 Weather Reports


Display with metric or nautical units.
time (UTC)temp
F
wind
direction
speed
MPH
gust
MPH
rain 1hr
in
rain 24hr
in
rain mn
in
humidity
%
barometer
mb
20231206045928 57 43 4.0 9.0 0.00 0.00 0.00 58 1027.0
20231206045427 57 15 3.0 8.0 0.00 0.00 0.00 57 1027.0
20231206044927 57 43 3.0 8.0 0.00 0.00 0.00 57 1027.0
20231206044425 57 35 2.0 6.0 0.00 0.00 0.00 58 1027.0
20231206044216 57 0 1.0 5.0 0.00 0.00 0.00 59 1027.0
20231206043425 57 236 2.0 6.0 0.00 0.00 0.00 58 1026.9
20231206043212 57 9 2.0 6.0 0.00 0.00 0.00 58 1026.9
20231206042423 57 25 2.0 8.0 0.00 0.00 0.00 57 1026.8
20231206041922 57 9 2.0 8.0 0.00 0.00 0.00 57 1026.7
20231206041422 57 41 2.0 7.0 0.00 0.00 0.00 57 1026.7
20231206040924 57 21 2.0 7.0 0.00 0.00 0.00 57 1026.6
20231206040423 57 41 2.0 6.0 0.00 0.00 0.00 57 1026.5
20231206035923 57 46 2.0 6.0 0.00 0.00 0.00 58 1026.5
20231206035423 57 0 1.0 4.0 0.00 0.00 0.00 58 1026.4
20231206034923 57 0 1.0 6.0 0.00 0.00 0.00 58 1026.3
20231206034424 57 45 2.0 6.0 0.00 0.00 0.00 58 1026.3
20231206033924 58 271 2.0 6.0 0.00 0.00 0.00 57 1026.2
20231206033422 58 27 2.0 4.0 0.00 0.00 0.00 57 1026.2
20231206032922 58 32 2.0 4.0 0.00 0.00 0.00 57 1026.1
20231206032422 58 19 2.0 5.0 0.00 0.00 0.00 57 1026.1
20231206032216 58 43 2.0 5.0 0.00 0.00 0.00 56 1026.1
20231206031707 58 334 2.0 4.0 0.00 0.00 0.00 57 1026.0
20231206030919 58 21 2.0 4.0 0.00 0.00 0.00 57 1026.1
20231206030417 58 47 2.0 7.0 0.00 0.00 0.00 58 1026.0
20231206025918 57 34 2.0 7.0 0.00 0.00 0.00 58 1025.9
20231206025418 57 31 2.0 7.0 0.00 0.00 0.00 59 1025.9
20231206024919 57 38 1.0 4.0 0.00 0.00 0.00 59 1025.9
20231206024413 57 0 1.0 4.0 0.00 0.00 0.00 59 1025.9
20231206023913 58 49 1.0 4.0 0.00 0.00 0.00 59 1025.8
20231206023415 58 46 1.0 4.0 0.00 0.00 0.00 58 1025.8
20231206022916 58 230 1.0 4.0 0.00 0.00 0.00 58 1025.7
20231206022414 58 45 1.0 4.0 0.00 0.00 0.00 58 1025.7
20231206021913 58 0 1.0 4.0 0.00 0.00 0.00 58 1025.7
20231206021415 58 0 1.0 4.0 0.00 0.00 0.00 58 1025.6
20231206020915 58 75 1.0 4.0 0.00 0.00 0.00 58 1025.5
20231206020414 58 46 1.0 4.0 0.00 0.00 0.00 58 1025.5
20231206015912 58 0 1.0 4.0 0.00 0.00 0.00 58 1025.5
20231206015410 58 38 1.0 4.0 0.00 0.00 0.00 59 1025.4
20231206014910 58 38 1.0 4.0 0.00 0.00 0.00 58 1025.4
20231206014410 58 33 1.0 4.0 0.00 0.00 0.00 58 1025.3
20231206013954 59 48 1.0 4.0 0.00 0.00 0.00 56 1025.3
20231206013939 59 44 1.0 4.0 0.00 0.00 0.00 57 1025.3
20231206012910 59 24 1.0 4.0 0.00 0.00 0.00 56 1025.3
20231206012409 60 76 1.0 6.0 0.00 0.00 0.00 56 1025.2
20231206011910 60 28 1.0 6.0 0.00 0.00 0.00 56 1025.3
20231206011410 60 46 1.0 6.0 0.00 0.00 0.00 55 1025.2
20231206010912 60 64 2.0 5.0 0.00 0.00 0.00 55 1025.2
20231206010410 60 36 2.0 5.0 0.00 0.00 0.00 54 1025.2
20231206005910 60 22 2.0 4.0 0.00 0.00 0.00 55 1025.1
20231206005407 60 42 2.0 5.0 0.00 0.00 0.00 55 1025.1
20231206005152 60 22 2.0 6.0 0.00 0.00 0.00 55 1025.1
20231206004408 60 34 2.0 6.0 0.00 0.00 0.00 55 1025.1
20231206003904 61 46 2.0 6.0 0.00 0.00 0.00 56 1025.1
20231206003655 61 47 2.0 6.0 0.00 0.00 0.00 55 1025.1
20231206002905 62 32 1.0 5.0 0.00 0.00 0.00 54 1025.0
20231206002700 62 44 1.0 4.0 0.00 0.00 0.00 54 1024.9
20231206001906 62 29 1.0 4.0 0.00 0.00 0.00 54 1024.8
20231206001502 63 31 2.0 5.0 0.00 0.00 0.00 52 1024.5
20231206001448 63 47 2.0 4.0 0.00 0.00 0.00 53 1024.6
20231206000405 63 33 2.0 5.0 0.00 0.00 0.00 51 1024.4
20231205235905 64 359 2.0 5.0 0.00 0.00 0.00 51 1024.3
20231205235656 64 42 2.0 4.0 0.00 0.00 0.00 51 1024.2
20231205234905 64 28 2.0 5.0 0.00 0.00 0.00 51 1024.0
20231205234405 65 47 2.0 5.0 0.00 0.00 0.00 50 1023.9
20231205233905 66 211 2.0 5.0 0.00 0.00 0.00 48 1023.9
20231205233401 67 37 2.0 5.0 0.00 0.00 0.00 47 1023.8
20231205233150 67 28 2.0 7.0 0.00 0.00 0.00 47 1023.7
20231205232401 67 46 3.0 7.0 0.00 0.00 0.00 46 1023.5
20231205231901 68 36 2.0 7.0 0.00 0.00 0.00 46 1023.5
20231205231400 68 45 2.0 4.0 0.00 0.00 0.00 45 1023.4
20231205231148 69 41 2.0 4.0 0.00 0.00 0.00 44 1023.3
20231205230403 69 353 2.0 4.0 0.00 0.00 0.00 43 1023.2
20231205225902 70 10 1.0 4.0 0.00 0.00 0.00 42 1023.2
20231205225401 71 9 1.0 3.0 0.00 0.00 0.00 42 1023.1
20231205224901 71 30 1.0 3.0 0.00 0.00 0.00 42 1023.0
20231205224401 72 15 1.0 3.0 0.00 0.00 0.00 41 1022.9
20231205223900 72 354 0.0 2.0 0.00 0.00 0.00 40 1022.9
20231205223400 72 297 0.0 3.0 0.00 0.00 0.00 40 1022.8
20231205222902 72 0 1.0 3.0 0.00 0.00 0.00 41 1022.7
20231205222401 72 330 1.0 3.0 0.00 0.00 0.00 40 1022.6
20231205221900 73 33 1.0 3.0 0.00 0.00 0.00 39 1022.5
20231205221401 72 0 0.0 3.0 0.00 0.00 0.00 40 1022.4
20231205220900 72 0 1.0 3.0 0.00 0.00 0.00 41 1022.4
20231205220401 72 254 1.0 3.0 0.00 0.00 0.00 41 1022.4
20231205215901 72 339 1.0 3.0 0.00 0.00 0.00 41 1022.4
20231205215401 72 86 1.0 3.0 0.00 0.00 0.00 41 1022.4
20231205214901 72 21 1.0 3.0 0.00 0.00 0.00 41 1022.4
20231205214401 72 45 1.0 7.0 0.00 0.00 0.00 41 1022.4
20231205213901 73 193 2.0 7.0 0.00 0.00 0.00 41 1022.4
20231205213403 73 92 1.0 4.0 0.00 0.00 0.00 41 1022.4
20231205212901 74 339 1.0 4.0 0.00 0.00 0.00 40 1022.4
20231205212401 74 29 1.0 5.0 0.00 0.00 0.00 39 1022.4
20231205211901 73 308 1.0 5.0 0.00 0.00 0.00 40 1022.4
20231205211402 73 302 1.0 3.0 0.00 0.00 0.00 40 1022.4
20231205210901 73 76 1.0 4.0 0.00 0.00 0.00 40 1022.4
20231205210402 72 204 1.0 5.0 0.00 0.00 0.00 41 1022.4
20231205205900 73 34 1.0 5.0 0.00 0.00 0.00 41 1022.5
20231205205401 73 90 1.0 4.0 0.00 0.00 0.00 41 1022.5
20231205204905 73 44 1.0 4.0 0.00 0.00 0.00 41 1022.6
20231205204402 73 301 1.0 4.0 0.00 0.00 0.00 42 1022.6
20231205203902 73 7 1.0 4.0 0.00 0.00 0.00 41 1022.6
20231205203402 73 280 1.0 4.0 0.00 0.00 0.00 40 1022.6
20231205202902 73 236 1.0 4.0 0.00 0.00 0.00 41 1022.7
20231205202402 73 260 1.0 4.0 0.00 0.00 0.00 41 1022.7
20231205201903 72 315 1.0 4.0 0.00 0.00 0.00 40 1022.7
20231205201402 71 0 1.0 4.0 0.00 0.00 0.00 42 1022.8
20231205200901 71 339 1.0 4.0 0.00 0.00 0.00 42 1022.7
20231205200404 71 0 1.0 4.0 0.00 0.00 0.00 42 1022.8
20231205195903 72 0 1.0 5.0 0.00 0.00 0.00 42 1022.8
20231205195402 73 248 2.0 5.0 0.00 0.00 0.00 40 1022.8
20231205194903 73 6 1.0 5.0 0.00 0.00 0.00 40 1022.9
20231205194447 72 0 2.0 6.0 0.00 0.00 0.00 42 1023.0
20231205194434 73 274 1.0 6.0 0.00 0.00 0.00 41 1023.0
20231205193359 71 226 3.0 8.0 0.00 0.00 0.00 42 1023.0
20231205192859 71 286 2.0 8.0 0.00 0.00 0.00 43 1023.0
20231205192400 72 239 2.0 8.0 0.00 0.00 0.00 41 1023.1
20231205191858 72 336 1.0 5.0 0.00 0.00 0.00 42 1023.1
20231205191358 72 216 2.0 5.0 0.00 0.00 0.00 41 1023.1
20231205190859 71 249 2.0 5.0 0.00 0.00 0.00 42 1023.2
20231205190358 71 326 2.0 4.0 0.00 0.00 0.00 42 1023.3
20231205190148 70 222 3.0 10.0 0.00 0.00 0.00 41 1023.5
20231205185359 70 224 4.0 13.0 0.00 0.00 0.00 42 1023.6
20231205184901 70 222 4.0 16.0 0.00 0.00 0.00 42 1023.7
20231205184649 70 223 3.0 16.0 0.00 0.00 0.00 42 1023.7
20231205183900 70 195 2.0 6.0 0.00 0.00 0.00 42 1023.8
20231205183651 70 278 2.0 6.0 0.00 0.00 0.00 42 1024.0
20231205182946 68 235 3.0 12.0 0.00 0.00 0.00 44 1024.2
20231205182933 69 259 2.0 12.0 0.00 0.00 0.00 41 1024.0
20231205181858 68 283 3.0 12.0 0.00 0.00 0.00 43 1024.3
20231205181355 68 236 4.0 11.0 0.00 0.00 0.00 44 1024.4
20231205180854 68 259 3.0 11.0 0.00 0.00 0.00 43 1024.4
20231205180355 68 35 2.0 6.0 0.00 0.00 0.00 42 1024.6
20231205175855 68 54 2.0 11.0 0.00 0.00 0.00 42 1024.6
20231205175355 67 49 3.0 11.0 0.00 0.00 0.00 43 1024.7
20231205174855 66 238 3.0 12.0 0.00 0.00 0.00 44 1024.8
20231205174645 67 238 3.0 12.0 0.00 0.00 0.00 43 1024.9
20231205173856 67 136 3.0 11.0 0.00 0.00 0.00 44 1025.1
20231205173647 66 230 3.0 9.0 0.00 0.00 0.00 42 1025.2
20231205172854 66 221 3.0 7.0 0.00 0.00 0.00 44 1025.2
20231205172354 65 221 3.0 6.0 0.00 0.00 0.00 45 1025.3
20231205171855 65 329 3.0 9.0 0.00 0.00 0.00 43 1025.4
20231205171353 65 263 3.0 13.0 0.00 0.00 0.00 45 1025.4
20231205170853 65 244 3.0 13.0 0.00 0.00 0.00 45 1025.4
20231205170355 65 232 2.0 8.0 0.00 0.00 0.00 46 1025.5
20231205165853 64 13 2.0 10.0 0.00 0.00 0.00 45 1025.5
20231205165349 64 86 2.0 11.0 0.00 0.00 0.00 46 1025.6
20231205164848 63 27 3.0 14.0 0.00 0.00 0.00 46 1025.6
20231205164350 63 214 3.0 14.0 0.00 0.00 0.00 47 1025.6
20231205163851 63 230 3.0 11.0 0.00 0.00 0.00 46 1025.6
20231205163636 63 97 2.0 9.0 0.00 0.00 0.00 46 1025.7
20231205163218 62 233 3.0 12.0 0.00 0.00 0.00 47 1025.7
20231205162919 62 202 3.0 12.0 0.00 0.00 0.00 47 1025.7
20231205161850 62 225 3.0 11.0 0.00 0.00 0.00 47 1025.6
20231205161430 61 241 3.0 11.0 0.00 0.00 0.00 49 1025.6
20231205161419 61 200 4.0 11.0 0.00 0.00 0.00 48 1025.6
20231205160350 60 221 2.0 9.0 0.00 0.00 0.00 48 1025.7
20231205155850 60 251 3.0 11.0 0.00 0.00 0.00 49 1025.7
20231205155350 60 341 3.0 11.0 0.00 0.00 0.00 49 1025.6
20231205155137 59 288 2.0 11.0 0.00 0.00 0.00 47 1025.6
20231205154347 59 250 2.0 11.0 0.00 0.00 0.00 48 1025.5
20231205153848 58 226 2.0 6.0 0.00 0.00 0.00 48 1025.4
20231205153348 58 247 1.0 4.0 0.00 0.00 0.00 51 1025.4
20231205152848 57 235 1.0 4.0 0.00 0.00 0.00 51 1025.3
20231205152343 57 256 1.0 3.0 0.00 0.00 0.00 52 1025.2
20231205151841 57 288 1.0 3.0 0.00 0.00 0.00 51 1025.1
20231205151341 57 201 1.0 3.0 0.00 0.00 0.00 49 1025.1
20231205150842 55 0 1.0 2.0 0.00 0.00 0.00 52 1025.1
20231205150343 54 271 1.0 2.0 0.00 0.00 0.00 55 1025.0
20231205145842 54 217 1.0 3.0 0.00 0.00 0.00 55 1024.8
20231205145343 54 266 1.0 3.0 0.00 0.00 0.00 55 1024.7
20231205144922 52 250 1.0 2.0 0.00 0.00 0.00 60 1024.6
20231205144909 53 217 1.0 3.0 0.00 0.00 0.00 59 1024.7
20231205144133 51 261 0.0 3.0 0.00 0.00 0.00 61 1024.6
20231205143338 51 0 0.0 3.0 0.00 0.00 0.00 60 1024.5
20231205142838 50 345 1.0 2.0 0.00 0.00 0.00 61 1024.5
20231205142337 48 68 1.0 3.0 0.00 0.00 0.00 63 1024.4
20231205141837 48 253 1.0 3.0 0.00 0.00 0.00 63 1024.3
20231205141336 47 294 1.0 2.0 0.00 0.00 0.00 65 1024.3
20231205140836 46 248 0.0 2.0 0.00 0.00 0.00 67 1024.2
20231205140337 45 271 0.0 2.0 0.00 0.00 0.00 69 1024.2
20231205135837 44 0 0.0 2.0 0.00 0.00 0.00 72 1024.2
20231205135334 43 344 0.0 2.0 0.00 0.00 0.00 74 1024.0
20231205134833 42 241 0.0 1.0 0.00 0.00 0.00 75 1024.0
20231205134332 42 0 0.0 2.0 0.00 0.00 0.00 75 1023.9
20231205133833 42 0 0.0 2.0 0.00 0.00 0.00 76 1023.8
20231205133333 41 0 0.0 2.0 0.00 0.00 0.00 76 1023.8
20231205132835 41 221 0.0 2.0 0.00 0.00 0.00 76 1023.7
20231205132618 42 342 1.0 2.0 0.00 0.00 0.00 75 1023.7
20231205131834 42 323 1.0 2.0 0.00 0.00 0.00 75 1023.6
20231205131335 42 0 1.0 2.0 0.00 0.00 0.00 75 1023.6
20231205130832 41 229 0.0 2.0 0.00 0.00 0.00 76 1023.6
20231205130330 41 299 0.0 2.0 0.00 0.00 0.00 76 1023.6
20231205125829 41 41 0.0 2.0 0.00 0.00 0.00 76 1023.5
20231205125615 41 203 0.0 2.0 0.00 0.00 0.00 74 1023.6
20231205124830 41 263 0.0 2.0 0.00 0.00 0.00 74 1023.5
20231205124329 42 0 0.0 1.0 0.00 0.00 0.00 74 1023.4
20231205123829 42 351 0.0 2.0 0.00 0.00 0.00 74 1023.4
20231205123329 42 0 0.0 2.0 0.00 0.00 0.00 72 1023.2
20231205122829 43 242 0.0 2.0 0.00 0.00 0.00 72 1023.3
20231205122329 43 0 0.0 1.0 0.00 0.00 0.00 71 1023.4
20231205121830 44 0 0.0 2.0 0.00 0.00 0.00 69 1023.4
20231205121659 44 0 0.0 2.0 0.00 0.00 0.00 67 1023.3
20231205121654 44 317 0.0 2.0 0.00 0.00 0.00 68 1023.4
20231205120328 44 288 0.0 2.0 0.00 0.00 0.00 66 1023.2
20231205115830 43 0 0.0 1.0 0.00 0.00 0.00 68 1023.3
20231205115330 43 0 0.0 1.0 0.00 0.00 0.00 68 1023.2
20231205114911 43 0 0.0 2.0 0.00 0.00 0.00 71 1023.1
20231205114856 43 289 0.0 2.0 0.00 0.00 0.00 69 1023.0
20231205114116 42 226 0.0 2.0 0.00 0.00 0.00 72 1023.0
20231205113331 43 0 0.0 2.0 0.00 0.00 0.00 71 1022.9
20231205113122 43 0 0.0 2.0 0.00 0.00 0.00 70 1022.8
20231205112330 43 285 0.0 1.0 0.00 0.00 0.00 70 1022.6
20231205111829 44 0 0.0 1.0 0.00 0.00 0.00 68 1022.5
20231205111330 44 0 0.0 1.0 0.00 0.00 0.00 68 1022.5
20231205110830 44 0 0.0 1.0 0.00 0.00 0.00 67 1022.6
20231205110330 44 0 0.0 1.0 0.00 0.00 0.00 67 1022.6
20231205105830 43 0 0.0 1.0 0.00 0.00 0.00 68 1022.5
20231205105329 44 0 0.0 1.0 0.00 0.00 0.00 69 1022.5
20231205104830 44 0 0.0 1.0 0.00 0.00 0.00 69 1022.4
20231205104330 44 279 0.0 1.0 0.00 0.00 0.00 68 1022.4
20231205103830 44 335 0.0 1.0 0.00 0.00 0.00 68 1022.4
20231205103329 44 0 0.0 2.0 0.00 0.00 0.00 68 1022.3
20231205102830 44 283 0.0 2.0 0.00 0.00 0.00 69 1022.3
20231205102330 43 0 0.0 2.0 0.00 0.00 0.00 71 1022.4
20231205101830 43 256 0.0 3.0 0.00 0.00 0.00 72 1022.4
20231205101330 43 0 1.0 3.0 0.00 0.00 0.00 72 1022.3
20231205101114 44 0 1.0 2.0 0.00 0.00 0.00 72 1022.3
20231205100330 44 0 0.0 2.0 0.00 0.00 0.00 71 1022.3
20231205095829 44 357 0.0 2.0 0.00 0.00 0.00 70 1022.3
20231205095330 44 359 0.0 2.0 0.00 0.00 0.00 69 1022.4
20231205094829 45 261 1.0 3.0 0.00 0.00 0.00 69 1022.4
20231205094331 45 300 1.0 3.0 0.00 0.00 0.00 68 1022.5
20231205093829 45 0 0.0 2.0 0.00 0.00 0.00 67 1022.5
20231205093329 45 0 1.0 2.0 0.00 0.00 0.00 66 1022.4
20231205093124 45 296 0.0 2.0 0.00 0.00 0.00 66 1022.4
20231205092329 45 0 0.0 2.0 0.00 0.00 0.00 66 1022.3
20231205091829 46 0 1.0 3.0 0.00 0.00 0.00 65 1022.2
20231205091329 46 356 1.0 3.0 0.00 0.00 0.00 64 1022.3
20231205090829 47 298 1.0 2.0 0.00 0.00 0.00 63 1022.2
20231205090328 47 351 0.0 2.0 0.00 0.00 0.00 62 1022.3
20231205085832 48 0 1.0 3.0 0.00 0.00 0.00 60 1022.3
20231205085329 48 55 1.0 3.0 0.00 0.00 0.00 57 1022.3
20231205084829 47 354 1.0 3.0 0.00 0.00 0.00 56 1022.3
20231205084329 47 11 1.0 3.0 0.00 0.00 0.00 56 1022.2
20231205084114 46 28 1.0 3.0 0.00 0.00 0.00 58 1022.1
20231205083622 45 335 1.0 3.0 0.00 0.00 0.00 61 1022.0
20231205082829 45 0 0.0 2.0 0.00 0.00 0.00 64 1022.0
20231205082615 45 286 0.0 2.0 0.00 0.00 0.00 62 1022.0
20231205081828 45 0 1.0 2.0 0.00 0.00 0.00 62 1021.9
20231205081330 45 37 1.0 2.0 0.00 0.00 0.00 62 1021.8
20231205081117 45 238 0.0 2.0 0.00 0.00 0.00 64 1021.7
20231205080329 45 357 0.0 2.0 0.00 0.00 0.00 64 1021.7
20231205075829 45 338 0.0 2.0 0.00 0.00 0.00 64 1021.7
20231205075330 45 338 0.0 1.0 0.00 0.00 0.00 64 1021.7
20231205074829 46 0 0.0 1.0 0.00 0.00 0.00 63 1021.7
20231205074329 46 0 0.0 2.0 0.00 0.00 0.00 62 1021.7
20231205073830 47 268 0.0 2.0 0.00 0.00 0.00 62 1021.7
20231205073328 47 0 1.0 2.0 0.00 0.00 0.00 60 1021.7
20231205072831 47 199 0.0 2.0 0.00 0.00 0.00 57 1021.7
20231205072329 47 345 0.0 2.0 0.00 0.00 0.00 55 1021.6
20231205071830 47 0 0.0 1.0 0.00 0.00 0.00 56 1021.6
20231205071329 48 248 0.0 1.0 0.00 0.00 0.00 54 1021.5
20231205070831 48 0 0.0 2.0 0.00 0.00 0.00 53 1021.5
20231205070330 48 0 0.0 2.0 0.00 0.00 0.00 53 1021.5
20231205065830 47 0 0.0 2.0 0.00 0.00 0.00 54 1021.5
20231205065331 47 0 0.0 1.0 0.00 0.00 0.00 54 1021.6
20231205064829 48 350 0.0 1.0 0.00 0.00 0.00 54 1021.6
20231205064329 48 0 0.0 1.0 0.00 0.00 0.00 53 1021.6
20231205063830 49 0 0.0 2.0 0.00 0.00 0.00 52 1021.6
20231205063331 49 232 0.0 2.0 0.00 0.00 0.00 52 1021.6
20231205062830 49 0 0.0 1.0 0.00 0.00 0.00 52 1021.6
20231205062331 49 308 0.0 2.0 0.00 0.00 0.00 53 1021.6
20231205061830 49 19 0.0 2.0 0.00 0.00 0.00 52 1021.7
20231205061330 49 26 0.0 2.0 0.00 0.00 0.00 52 1021.7
20231205060830 49 0 0.0 2.0 0.00 0.00 0.00 52 1021.7
20231205060330 50 46 1.0 2.0 0.00 0.00 0.00 51 1021.7
20231205060118 50 28 0.0 2.0 0.00 0.00 0.00 51 1021.7
20231205055329 49 51 0.0 2.0 0.00 0.00 0.00 51 1021.7
20231205054829 50 0 0.0 2.0 0.00 0.00 0.00 51 1021.8
20231205054329 50 28 0.0 3.0 0.00 0.00 0.00 52 1021.7
20231205053830 50 0 1.0 3.0 0.00 0.00 0.00 50 1021.7
20231205053331 50 49 1.0 3.0 0.00 0.00 0.00 50 1021.8
20231205052829 50 15 1.0 2.0 0.00 0.00 0.00 50 1021.8
20231205052329 49 259 0.0 2.0 0.00 0.00 0.00 52 1021.8
20231205051829 49 0 0.0 2.0 0.00 0.00 0.00 52 1021.8
20231205051329 49 58 0.0 2.0 0.00 0.00 0.00 52 1021.8
20231205050828 48 249 0.0 2.0 0.00 0.00 0.00 53 1021.8